Location: Oak Glen
(34.0495°N, 116.9470°E)
Time: 03:24:04
(UTC-08:00)

Envisat - Pass Details

Date: 07 October 2017
Orbit: 764 x 766 km, 98.2° (Epoch: 10 December)

Event Time Altitude Azimuth Distance (km) Brightness Sun altitude
Exits shadow 04:56:38 40° 10° (N) 1,115 3.8 -27.2°
Drops below altitude 10° 04:59:57 10° 354° (N) 2,306 5.7 -27.9°
Sets 05:02:16 0° 352° (N) 3,236 6.5 -28.3°
